FLOCK 3R-13 (43750 NORAD) Tracking and Keplerian Element Data

This shows tracking and keplerian element data for the satellite.

Feedback or suggestion? Click here.




ElementValue
Catalog43750
NameFLOCK 3R-13
Epoch Orbit173
Epoch Day344.51878987
Epoch Year2018
RAAN49.5365
Inclination97.4836
Eccentricity0.0020565
Argument of Perigee290.5415
Mean Anonmoly178.2098
Mean Motion15.2694189
Decay Rate2.438E-05
L11 43750U 18096AH 18344.51878987 .00002438 00000-0 94548-4 0 9997
L22 43750 97.4836 49.5365 0020565 290.5415 178.2098 15.26941890 1735

Live tracking and technical data element details for FLOCK 3R-13 (NORAD 43750). FLOCK 3R-13 can be tracked NOW for your location showing map with azimuth and elevation plus other details from your city location.

Track the satellite on the map from your city or location and see movement details for azimuth, elevation, latitude, longitude, range, height, and movement on the map or in text.







IsCatalogInMostPopularTable: catalog: 43750, numindb: 2
Update: records affected: 1



GetName: 43750 FLOCK 3R-13

Hit Count: updated at: Tue, 11 Dec 2018 02:37:57 GMT